Wisconsin Dells, Wisconsin, United States (53965)
Lat: 43.63N, Lon: 89.77W
Wx Zone: WIZ057
Local Info
Past Weather Observations for Saturday, October 25, 2014

NOTE: This archive is for the closest National Weather Service station to Wisconsin Dells. Information may differ from the station used for current weather conditions.

Click here for Long-term Archive

Time Weather Temperature Dewpoint Humidity Pressure Winds Precip Visibility
23:55
Clear
46°F / 8°C 27°F / -3°C 46% 30.01 in
(1016 mb)
NW 3.5 mph
(NW 6 kph)
- 10SM
23:35
Clear
46°F / 8°C 27°F / -3°C 46% 30.01 in
(1016 mb)
NW 3.5 mph
(NW 6 kph)
- 10SM
23:15
Clear
46°F / 8°C 28°F / -2°C 50% 30.01 in
(1016 mb)
NW 5.8 mph
(NW 9 kph)
- 10SM
22:55
Clear
48°F / 9°C 27°F / -3°C 43% 30.01 in
(1016 mb)
WNW 6.9 mph
(WNW 11 kph)
- 10SM
22:35
Clear
48°F / 9°C 28°F / -2°C 46% 30.01 in
(1016 mb)
W 4.6 mph
(W 7 kph)
- 10SM
22:15
Clear
48°F / 9°C 28°F / -2°C 46% 30.01 in
(1016 mb)
W 5.8 mph
(W 9 kph)
- 10SM
21:55
Clear
48°F / 9°C 27°F / -3°C 43% 30.01 in
(1016 mb)
W 4.6 mph
(W 7 kph)
- 10SM
21:35
Clear
48°F / 9°C 27°F / -3°C 43% 30.01 in
(1016 mb)
W 4.6 mph
(W 7 kph)
- 10SM
21:15
Clear
50°F / 10°C 27°F / -3°C 40% 30.01 in
(1016 mb)
W 3.5 mph
(W 6 kph)
- 10SM
20:55
Clear
50°F / 10°C 27°F / -3°C 40% 30.01 in
(1016 mb)
W 4.6 mph
(W 7 kph)
- 10SM
20:35
Clear
50°F / 10°C 27°F / -3°C 40% 30.01 in
(1016 mb)
W 3.5 mph
(W 6 kph)
- 10SM
20:15
Clear
50°F / 10°C 27°F / -3°C 40% 29.98 in
(1015 mb)
W 4.6 mph
(W 7 kph)
- 10SM
19:55
Clear
52°F / 11°C 27°F / -3°C 38% 29.98 in
(1015 mb)
W 5.8 mph
(W 9 kph)
- 10SM
19:35
Clear
52°F / 11°C 27°F / -3°C 38% 29.98 in
(1015 mb)
W 4.6 mph
(W 7 kph)
- 10SM
19:15
Clear
52°F / 11°C 25°F / -4°C 35% 29.98 in
(1015 mb)
W 4.6 mph
(W 7 kph)
- 10SM
18:55
Clear
54°F / 12°C 25°F / -4°C 33% 29.98 in
(1015 mb)
W 4.6 mph
(W 7 kph)
- 10SM
18:35
Clear
54°F / 12°C 25°F / -4°C 33% 29.98 in
(1015 mb)
W 3.5 mph
(W 6 kph)
- 10SM
18:15
Clear
55°F / 13°C 25°F / -4°C 31% 29.98 in
(1015 mb)
WNW 6.9 mph
(WNW 11 kph)
- 10SM
17:55
Clear
55°F / 13°C 25°F / -4°C 31% 29.98 in
(1015 mb)
WNW 8.1 mph
(WNW 13 kph)
- 10SM
17:35
Clear
55°F / 13°C 25°F / -4°C 31% 29.98 in
(1015 mb)
W 5.8 mph
(W 9 kph)
- 10SM
17:15
Clear
57°F / 14°C 23°F / -5°C 27% 29.95 in
(1014 mb)
WNW 8.1 mph
(WNW 13 kph)
- 10SM
16:55
Clear
59°F / 15°C 25°F / -4°C 27% 29.95 in
(1014 mb)
WNW 10.4 mph
(WNW 17 kph)
- 10SM
16:35
Clear
61°F / 16°C 25°F / -4°C 25% 29.95 in
(1014 mb)
W 9.2 mph
(W 15 kph)
- 10SM
16:15
Clear
63°F / 17°C 25°F / -4°C 24% 29.95 in
(1014 mb)
W 11.5 mph
(W 19 kph)
- 10SM
15:55
Clear
63°F / 17°C 25°F / -4°C 24% 29.95 in
(1014 mb)
NW 15 mph
(NW 24 kph)
- 10SM
15:35
Clear
64°F / 18°C 25°F / -4°C 22% 29.95 in
(1014 mb)
WNW 13.8 mph
(WNW 22 kph)
- 10SM
15:15
Clear
64°F / 18°C 28°F / -2°C 26% 29.95 in
(1014 mb)
W 15 mph
(W 24 kph)
- 10SM
14:55
Clear
64°F / 18°C 21°F / -6°C 19% 29.95 in
(1014 mb)
NW 11.5 mph
(NW 19 kph)
- 10SM
14:35
Clear
64°F / 18°C 23°F / -5°C 21% 29.95 in
(1014 mb)
NW 18.4 mph
(NW 30 kph)
- 10SM
14:15
Clear
66°F / 19°C 23°F / -5°C 19% 29.95 in
(1014 mb)
NW 15 mph
(NW 24 kph)
- 10SM
13:55
Clear
66°F / 19°C 21°F / -6°C 18% 29.95 in
(1014 mb)
NW 12.7 mph
(NW 20 kph)
- 10SM
13:35
Clear
66°F / 19°C 25°F / -4°C 21% 29.95 in
(1014 mb)
WNW 19.6 mph
(WNW 32 kph)
- 10SM
13:15
Clear
66°F / 19°C 27°F / -3°C 22% 29.95 in
(1014 mb)
W 15 mph
(W 24 kph)
- 10SM
12:55
Clear
66°F / 19°C 28°F / -2°C 24% 29.95 in
(1014 mb)
W 13.8 mph
(W 22 kph)
- 10SM
12:35
Clear
66°F / 19°C 27°F / -3°C 22% 29.95 in
(1014 mb)
W 17.3 mph
(W 28 kph)
- 10SM
12:15
Clear
64°F / 18°C 27°F / -3°C 24% 29.95 in
(1014 mb)
NW 19.6 mph
(NW 32 kph)
- 10SM
11:55
Clear
64°F / 18°C 28°F / -2°C 26% 29.95 in
(1014 mb)
WNW 18.4 mph
(WNW 30 kph)
- 10SM
11:35
Clear
64°F / 18°C 28°F / -2°C 26% 29.95 in
(1014 mb)
WNW 17.3 mph
(WNW 28 kph)
- 10SM
11:15
Clear
64°F / 18°C 28°F / -2°C 26% 29.95 in
(1014 mb)
W 16.1 mph
(W 26 kph)
- 10SM
10:55
Clear
63°F / 17°C 28°F / -2°C 27% 29.95 in
(1014 mb)
WNW 11.5 mph
(WNW 19 kph)
- 10SM
10:35
Clear
63°F / 17°C 28°F / -2°C 27% 29.98 in
(1015 mb)
WNW 11.5 mph
(WNW 19 kph)
- 10SM
10:15
Clear
63°F / 17°C 30°F / -1°C 30% 29.98 in
(1015 mb)
NW 12.7 mph
(NW 20 kph)
- 10SM
09:55
Clear
61°F / 16°C 30°F / -1°C 31% 29.98 in
(1015 mb)
NW 15 mph
(NW 24 kph)
- 10SM
09:35
Clear
61°F / 16°C 32°F / 0°C 34% 29.98 in
(1015 mb)
WNW 11.5 mph
(WNW 19 kph)
- 10SM
09:15
Clear
61°F / 16°C 36°F / 2°C 39% 29.98 in
(1015 mb)
NW 9.2 mph
(NW 15 kph)
- 10SM
08:55
Clear
59°F / 15°C 39°F / 4°C 48% 29.98 in
(1015 mb)
NW 5.8 mph
(NW 9 kph)
- 10SM
08:35
Clear
57°F / 14°C 41°F / 5°C 55% 29.98 in
(1015 mb)
WNW 9.2 mph
(WNW 15 kph)
- 10SM
08:15
Clear
55°F / 13°C 43°F / 6°C 63% 29.95 in
(1014 mb)
WNW 6.9 mph
(WNW 11 kph)
- 10SM
07:55
Clear
55°F / 13°C 45°F / 7°C 67% 29.95 in
(1014 mb)
WNW 6.9 mph
(WNW 11 kph)
- 10SM
07:35
Clear
54°F / 12°C 45°F / 7°C 72% 29.95 in
(1014 mb)
W 5.8 mph
(W 9 kph)
- 10SM
07:15
Clear
54°F / 12°C 46°F / 8°C 77% 29.95 in
(1014 mb)
W 5.8 mph
(W 9 kph)
- 10SM
06:55
Clear
52°F / 11°C 46°F / 8°C 82% 29.95 in
(1014 mb)
W 6.9 mph
(W 11 kph)
- 10SM
06:35
Clear
52°F / 11°C 45°F / 7°C 77% 29.92 in
(1013 mb)
SSW 4.6 mph
(SSW 7 kph)
- 10SM
06:15
Clear
52°F / 11°C 46°F / 8°C 82% 29.92 in
(1013 mb)
SSW 3.5 mph
(SSW 6 kph)
- 10SM
05:55
Clear
52°F / 11°C 48°F / 9°C 88% 29.92 in
(1013 mb)
W 5.8 mph
(W 9 kph)
- 10SM
05:35
Clear
52°F / 11°C 48°F / 9°C 88% 29.92 in
(1013 mb)
W 5.8 mph
(W 9 kph)
- 10SM
05:15
Clear
52°F / 11°C 48°F / 9°C 88% 29.92 in
(1013 mb)
W 5.8 mph
(W 9 kph)
- 7SM
04:55
Clear
54°F / 12°C 50°F / 10°C 88% 29.92 in
(1013 mb)
W 4.6 mph
(W 7 kph)
- 7SM
04:35
Clear
54°F / 12°C 50°F / 10°C 88% 29.92 in
(1013 mb)
W 6.9 mph
(W 11 kph)
- 7SM
04:15
Clear
Fog And Mist
54°F / 12°C 50°F / 10°C 88% 29.89 in
(1012 mb)
W 8.1 mph
(W 13 kph)
- 5SM
03:55
Clear
Fog And Mist
55°F / 13°C 52°F / 11°C 88% 29.89 in
(1012 mb)
W 6.9 mph
(W 11 kph)
- 5SM
03:35
Clear
Fog And Mist
55°F / 13°C 52°F / 11°C 88% 29.89 in
(1012 mb)
W 5.8 mph
(W 9 kph)
- 5SM
03:15
Clear
Fog And Mist
55°F / 13°C 52°F / 11°C 88% 29.89 in
(1012 mb)
W 5.8 mph
(W 9 kph)
- 4SM
02:55
Clear
Fog And Mist
55°F / 13°C 52°F / 11°C 88% 29.89 in
(1012 mb)
SSW 6.9 mph
(SSW 11 kph)
- 4SM
02:35
Clear
Fog And Mist
54°F / 12°C 52°F / 11°C 94% 29.89 in
(1012 mb)
SSW 5.8 mph
(SSW 9 kph)
- 2 1/2SM
02:15
Clear
Fog And Mist
54°F / 12°C 52°F / 11°C 94% 29.89 in
(1012 mb)
SSW 6.9 mph
(SSW 11 kph)
- 2 1/2SM
01:55
Clear
Fog And Mist
55°F / 13°C 52°F / 11°C 88% 29.89 in
(1012 mb)
SSW 6.9 mph
(SSW 11 kph)
- 3SM
01:35
Partly Cloudy
Fog And Mist
55°F / 13°C 54°F / 12°C 94% 29.89 in
(1012 mb)
SSW 6.9 mph
(SSW 11 kph)
- 4SM
01:15
Overcast
Fog And Mist
57°F / 14°C 54°F / 12°C 88% 29.89 in
(1012 mb)
SSW 9.2 mph
(SSW 15 kph)
- 4SM
00:55
Overcast
Fog And Mist
57°F / 14°C 54°F / 12°C 88% 29.89 in
(1012 mb)
SSW 9.2 mph
(SSW 15 kph)
- 4SM
00:35
Overcast
Fog And Mist
57°F / 14°C 54°F / 12°C 88% 29.89 in
(1012 mb)
SSW 8.1 mph
(SSW 13 kph)
- 4SM
00:15
Overcast
Fog And Mist
57°F / 14°C 54°F / 12°C 88% 29.89 in
(1012 mb)
SSW 9.2 mph
(SSW 15 kph)
- 4SM
Time Weather Temperature Dewpoint Humidity Pressure Winds Precip Visibility


Weather for websites

WeatherForYou.com, LLC is not responsible for any damages or problems caused by this service. Current weather conditions are obtained from the closest station including government and personal stations which may have varying degrees of accuracy. Weather forecasts are derived from the NOAA NDFD. Like all things, this site belongs to Jesus Christ... He just trusts me to maintain it. If you have any questions or comments email webmaster@weatherforyou.com

Copyright © 2014, WeatherForYou.com LLC. All rights reserved.